sat.trackr.live / text

‹ back to catalog

STARLINK-35178

NORAD 65610 · 2025-207U

PAYLOAD ACTIVE UNKNOWN

§ Identity

Operator
Country
US
Launch date
2025-09-13
Launch site
AFWTR
Launch vehicle
Mass (kg)
RCS (m²)

Purposes: comms

External: N2YO · Heavens-Above · Gunter

§ Orbital elements

Epoch: 2026-05-25T03:19:44.760000Z

Period
95.64 min
Inclination
97.4478°
Eccentricity
0.0001807
Mean motion
15.05661028 rev/d
Perigee alt
548.2 km
Apogee alt
550.7 km
Semi-major
6,927.6 km
B*
5.6062e-4
RAAN
213.6338°
Arg perigee
171.8370°
Mean anomaly
188.2887°
Rev number
3,976

§ Raw data

STARLINK-351781 65610U 25207U   26145.13871250  .00008042  00000+0  56062-3 0  99942 65610  97.4478 213.6338 0001807 171.8370 188.2887 15.05661028 39769

JSON: /api/v1/satellites/65610 · /tle

For live sub-satellite position, see the globe view (requires WebGL).

§ Visibility from observer

Set your observer location to see the next 7 days of passes ≥ 10°. The values pass through the URL so the page stays shareable.

No JS? Fill the form by hand. The geolocation button needs JavaScript.